Regional Weather Roundup
Issued by NWS

Home | Current Version | Previous Version | Graphics & Text | Print | Product List | Glossary On
Versions: 1 2 3 4 5 6 7 8 9 10 11 12 13 14 15 16 17 18 19 20 21 22 23 24 25 26 27 28 29 30 31 32 33 34 35 36 37 38 39 40 41 42 43 44 45 46 47 48 49 50
000
ASUS44 KMEG 050600
RWRTN
TENNESSEE HOURLY STATE WEATHER ROUNDUP
NATIONAL WEATHER SERVICE MEMPHIS TN
100 AM CDT SAT SEP 05 2015

TNZ002-004-019-021-049-052-054-088>092-050700-
WEST TENNESSEE

CITY           SKY/WX    TMP DP  RH WIND       PRES   REMARKS
MEMPHIS INTL   CLEAR     82  72  71 E3        30.02S
NWS MEMPHIS      N/A     76 N/A N/A MISG        N/A
JACKSON        CLEAR     71  69  93 CALM      30.03F FOG
DYERSBURG      CLEAR     73  70  88 CALM      30.04S
UNION CITY     CLEAR    N/A N/A N/A CALM      30.02F
PARIS          CLEAR     72  66  83 NE3       30.04F
LEXINGTON      CLEAR     70  70 100 CALM      30.03S
$$

TNZ008-025-027-028-033-062-065-066-050700-
NORTH MIDDLE TENNESSEE

CITY           SKY/WX    TMP DP  RH WIND       PRES   REMARKS
NASHVILLE      CLEAR     74  67  78 CALM      30.06S
CLARKSVILLE    CLEAR     71  68  90 CALM      30.05S
COOKEVILLE     CLEAR     66  66 100 CALM      30.07S
CROSSVILLE     CLEAR     68  64  87 CALM      30.13S FOG
$$

TNZ061-075-076-078-094-096-097-050700-
SOUTH MIDDLE TENNESSEE

CITY           SKY/WX    TMP DP  RH WIND       PRES   REMARKS
FAYETTEVILLE   CLEAR     72  70  94 CALM      30.06S
TULLAHOMA      CLEAR     66  64  94 CALM      30.08F
WINCHESTER     CLEAR     66  66 100 CALM      30.07S
COLUMBIA       CLEAR    N/A N/A N/A CALM      30.04S
SHELBYVILLE    CLEAR     72  72 100 CALM      30.06F
$$

TNZ017-018-042-046-047-050700-
NORTHEAST TENNESSEE

CITY           SKY/WX    TMP DP  RH WIND       PRES   REMARKS
TRI CITIES     PTCLDY    68  64  87 CALM      30.13R
ELIZABETHTON   CLEAR     64  61  88 E5        30.14S
$$

TNZ012-013-036-069-073-074-050700-
CENTRAL EAST TENNESSEE

CITY           SKY/WX    TMP DP  RH WIND       PRES   REMARKS
KNOXVILLE      PTCLDY    74  68  81 CALM      30.06R
OAK RIDGE      CLEAR     72  68  87 CALM      30.08S
GATLINBURG     CLEAR     70  64  83 CALM      30.07F
$$

TNZ083-085-099-050700-
SOUTHEAST TENNESSEE

CITY           SKY/WX    TMP DP  RH WIND       PRES   REMARKS
CHATTANOOGA    CLEAR     73  69  87 NW5       30.04F
$$

SKY/WX REPORTED AS FAIR MEANS FEW OR NO CLOUDS BELOW
12 THOUSAND FEET.



USA.gov is the U.S. government's official web portal to all federal, state and local government web resources and services.